GW0254 Weather Reports


Display with metric or nautical units.
time (UTC)temp
F
wind
direction
speed
MPH
gust
MPH
rain 1hr
in
rain 24hr
in
rain mn
in
humidity
%
barometer
mb
20260504081546 40 0 0.0 2.0 0.00 0.19 0.00 89 1014.8
20260504081026 40 94 0.0 2.0 0.00 0.19 0.00 90 1014.8
20260504080525 41 0 0.0 3.0 0.00 0.19 0.00 90 1014.9
20260504050524 40 0 0.0 0.0 0.00 0.19 0.19 90 1015.4
20260504045524 40 0 0.0 0.0 0.00 0.19 0.19 90 1015.4
20260504045023 40 0 0.0 0.0 0.00 0.19 0.19 89 1015.4
20260504044551 40 0 0.0 0.0 0.00 0.19 0.19 89 1015.3
20260504044024 40 0 0.0 0.0 0.00 0.19 0.19 90 1015.3
20260504043524 40 0 0.0 0.0 0.00 0.19 0.19 90 1015.2
20260504043038 40 0 0.0 0.0 0.00 0.19 0.19 90 1015.3
20260504042525 41 0 0.0 0.0 0.00 0.19 0.19 90 1015.3
20260504042024 41 0 0.0 0.0 0.00 0.19 0.19 89 1015.3
20260504041546 41 0 0.0 0.0 0.00 0.19 0.19 89 1015.3
20260504041025 41 0 0.0 1.0 0.00 0.19 0.19 89 1015.3
20260504040525 41 0 0.0 1.0 0.00 0.19 0.19 89 1015.2
20260504040104 41 0 0.0 3.0 0.00 0.19 0.19 89 1015.4
20260504035526 41 0 0.0 3.0 0.00 0.20 0.19 89 1015.4
20260504035026 41 0 0.0 3.0 0.00 0.20 0.19 88 1015.4
20260504034600 41 0 0.0 2.0 0.00 0.20 0.19 88 1015.3
20260504034025 41 0 0.0 3.0 0.00 0.20 0.19 88 1015.2
20260504033524 42 86 0.0 3.0 0.00 0.20 0.19 90 1015.0
20260504033037 42 0 0.0 3.0 0.00 0.20 0.19 90 1015.0
20260504032525 42 0 0.0 2.0 0.00 0.20 0.19 90 1015.0
20260504032028 42 86 0.0 1.0 0.00 0.20 0.19 90 1015.0
20260504031536 42 0 0.0 0.0 0.00 0.20 0.19 90 1014.9
20260504031024 42 0 0.0 0.0 0.00 0.20 0.19 89 1014.5
20260504030524 42 0 0.0 0.0 0.00 0.20 0.19 89 1014.5
20260504025525 42 0 0.0 1.0 0.00 0.23 0.19 89 1014.6
20260504025026 42 0 0.0 1.0 0.00 0.23 0.19 89 1014.6
20260504024541 42 0 0.0 2.0 0.00 0.23 0.19 88 1014.5
20260504024025 42 0 0.0 2.0 0.00 0.23 0.19 88 1014.6
20260504023525 42 0 0.0 2.0 0.00 0.23 0.19 89 1014.6
20260504023040 43 0 0.0 2.0 0.00 0.23 0.19 90 1014.7
20260504022525 43 0 0.0 2.0 0.00 0.23 0.19 89 1014.8
20260504022025 43 0 0.0 2.0 0.00 0.23 0.19 89 1015.1
20260504021538 43 0 0.0 3.0 0.00 0.23 0.19 88 1015.1
20260504021024 43 84 0.0 3.0 0.00 0.23 0.19 89 1015.0
20260504020525 43 0 0.0 3.0 0.00 0.23 0.19 88 1014.9
20260504020045 43 0 0.0 3.0 0.00 0.23 0.19 88 1015.2
20260504015525 43 81 0.0 2.0 0.00 0.28 0.19 86 1015.4
20260504015025 44 0 0.0 2.0 0.00 0.28 0.19 86 1015.4
20260504014544 44 0 0.0 2.0 0.00 0.28 0.19 86 1015.4
20260504014025 44 0 0.0 2.0 0.00 0.28 0.19 86 1015.4
20260504013525 44 0 0.0 3.0 0.00 0.28 0.19 86 1015.2
20260504013050 44 81 0.0 3.0 0.00 0.28 0.19 86 1015.2
20260504012530 44 0 0.0 3.0 0.00 0.28 0.19 84 1015.2
20260504012025 44 0 0.0 3.0 0.00 0.28 0.19 85 1015.2
20260504011541 44 0 0.0 3.0 0.00 0.28 0.19 84 1015.2
20260504011024 44 81 0.0 3.0 0.00 0.28 0.19 85 1015.1
20260504010524 45 0 0.0 3.0 0.00 0.28 0.19 86 1015.1
20260504010040 45 69 0.0 2.0 0.00 0.28 0.19 83 1014.6
20260504005525 45 0 0.0 3.0 0.00 0.28 0.19 85 1014.6
20260504005025 45 0 0.0 3.0 0.00 0.28 0.19 87 1014.7
20260504004537 45 66 0.0 2.0 0.00 0.28 0.19 85 1014.7
20260504004025 44 0 0.0 2.0 0.00 0.28 0.19 88 1014.7
20260504003524 44 0 0.0 1.0 0.00 0.28 0.19 87 1014.7
20260504003044 43 0 0.0 5.0 0.00 0.28 0.19 88 1014.7
20260504002525 43 0 0.0 5.0 0.00 0.28 0.19 87 1015.1
20260504002024 42 346 1.0 5.0 0.01 0.28 0.19 89 1015.0
20260504001558 42 0 0.0 4.0 0.02 0.28 0.19 88 1015.3
20260504001024 42 0 0.0 3.0 0.02 0.28 0.19 88 1015.6
20260504000525 42 0 0.0 0.0 0.02 0.28 0.19 92 1015.9
20260504000047 41 0 0.0 2.0 0.02 0.28 0.19 91 1016.2
20260503235526 41 0 0.0 2.0 0.03 0.28 0.19 91 1016.3
20260503235024 41 0 0.0 4.0 0.03 0.28 0.19 91 1016.5
20260503234540 41 0 0.0 4.0 0.04 0.28 0.19 91 1016.5
20260503234025 40 0 0.0 1.0 0.04 0.28 0.19 90 1016.6
20260503233526 40 0 0.0 0.0 0.05 0.28 0.19 90 1016.9
20260503233040 40 0 0.0 0.0 0.06 0.28 0.19 90 1017.1
20260503232525 40 0 0.0 0.0 0.05 0.27 0.18 89 1017.1
20260503232024 40 0 0.0 0.0 0.07 0.27 0.18 89 1017.2
20260503231539 41 0 0.0 0.0 0.07 0.26 0.17 89 1017.3
20260503231026 41 0 0.0 1.0 0.08 0.26 0.17 89 1017.4
20260503230527 40 0 0.0 2.0 0.10 0.26 0.17 89 1017.3
20260503230038 41 0 0.0 2.0 0.12 0.26 0.17 88 1017.2
20260503225524 41 0 0.0 5.0 0.13 0.25 0.16 89 1017.3
20260503225024 41 186 0.0 6.0 0.13 0.24 0.15 90 1017.3
20260503224541 41 0 1.0 6.0 0.14 0.24 0.15 89 1017.5
20260503224028 41 0 0.0 4.0 0.14 0.24 0.15 89 1017.5
20260503223524 41 222 0.0 7.0 0.13 0.23 0.14 89 1017.8
20260503223040 41 193 1.0 8.0 0.12 0.22 0.13 88 1018.0
20260503222523 41 215 2.0 8.0 0.11 0.21 0.12 89 1018.1
20260503222023 42 225 0.0 18.0 0.11 0.20 0.11 87 1018.0
20260503221543 42 154 4.0 18.0 0.10 0.19 0.10 85 1017.9
20260503221026 43 159 1.0 9.0 0.08 0.17 0.08 84 1017.8
20260503220526 43 0 1.0 6.0 0.07 0.16 0.07 79 1017.6
20260503220037 44 0 0.0 6.0 0.05 0.14 0.05 79 1017.6
20260503215524 45 0 0.0 4.0 0.02 0.11 0.02 79 1017.7
20260503215027 45 0 0.0 3.0 0.02 0.11 0.02 75 1017.3
20260503214538 46 321 1.0 5.0 0.01 0.10 0.01 75 1017.0
20260503214026 46 0 0.0 5.0 0.01 0.10 0.01 73 1016.7
20260503213528 47 317 2.0 5.0 0.01 0.10 0.01 71 1016.6
20260503213046 47 238 1.0 7.0 0.01 0.10 0.01 69 1016.5
20260503212526 48 243 2.0 10.0 0.01 0.10 0.01 67 1016.5
20260503212024 49 199 2.0 16.0 0.00 0.09 0.00 62 1016.4
20260503211549 51 186 5.0 26.0 0.00 0.09 0.00 56 1016.2
20260503211025 52 173 5.0 26.0 0.00 0.09 0.00 51 1016.1
20260503210528 55 165 6.0 21.0 0.00 0.09 0.00 50 1015.3
20260503210039 58 240 5.0 18.0 0.00 0.09 0.00 47 1014.6
20260503205525 59 158 2.0 11.0 0.00 0.09 0.00 36 1013.9
20260503205026 59 184 3.0 12.0 0.00 0.09 0.00 34 1013.7
20260503204554 59 122 1.0 12.0 0.00 0.09 0.00 35 1013.7
20260503204025 59 79 7.0 12.0 0.00 0.09 0.00 33 1013.9
20260503203525 60 308 2.0 11.0 0.00 0.09 0.00 36 1013.7
20260503203036 59 154 2.0 11.0 0.00 0.09 0.00 35 1013.9
20260503202524 59 150 5.0 11.0 0.00 0.09 0.00 35 1014.1
20260503202025 58 105 4.0 12.0 0.00 0.09 0.00 35 1014.1
20260503201541 59 127 3.0 12.0 0.00 0.09 0.00 35 1014.1
20260503201025 59 30 7.0 12.0 0.00 0.09 0.00 35 1014.2
20260503200526 60 175 4.0 12.0 0.00 0.09 0.00 36 1014.1
20260503200044 60 179 4.0 12.0 0.00 0.09 0.00 35 1014.1
20260503195527 60 150 3.0 8.0 0.00 0.09 0.00 34 1014.1
20260503195025 60 98 3.0 8.0 0.00 0.09 0.00 34 1014.3
20260503194542 60 173 2.0 11.0 0.00 0.09 0.00 32 1014.2
20260503194026 60 168 2.0 11.0 0.00 0.09 0.00 33 1014.3
20260503193527 59 178 4.0 10.0 0.00 0.09 0.00 36 1014.3
20260503193044 59 83 4.0 11.0 0.00 0.09 0.00 39 1014.4
20260503192524 58 65 4.0 11.0 0.00 0.09 0.00 39 1014.4
20260503192024 58 88 4.0 10.0 0.00 0.09 0.00 39 1014.6
20260503191549 58 47 3.0 10.0 0.00 0.09 0.00 39 1014.7
20260503191026 58 158 4.0 14.0 0.00 0.09 0.00 38 1014.8
20260503190525 59 81 5.0 14.0 0.00 0.09 0.00 37 1014.9
20260503190058 58 127 3.0 11.0 0.00 0.09 0.00 39 1014.9
20260503185525 59 165 6.0 14.0 0.00 0.09 0.00 36 1015.1
20260503185024 59 155 4.0 14.0 0.00 0.09 0.00 39 1015.1
20260503184541 58 148 6.0 14.0 0.00 0.09 0.00 37 1015.2
20260503184026 58 99 4.0 10.0 0.00 0.09 0.00 36 1015.3
20260503183524 58 205 3.0 8.0 0.00 0.09 0.00 38 1015.2
20260503183049 58 111 3.0 14.0 0.00 0.09 0.00 38 1015.2
20260503182525 58 111 4.0 15.0 0.00 0.09 0.00 35 1015.2
20260503182023 58 91 6.0 15.0 0.00 0.09 0.00 37 1015.3
20260503181545 57 167 5.0 15.0 0.00 0.09 0.00 39 1015.2
20260503181025 56 85 5.0 15.0 0.00 0.09 0.00 39 1015.2
20260503180525 56 113 7.0 15.0 0.00 0.09 0.00 38 1015.3
20260503180050 56 169 6.0 15.0 0.00 0.09 0.00 38 1015.2
20260503175524 56 92 6.0 15.0 0.00 0.09 0.00 40 1015.3
20260503175026 56 91 6.0 15.0 0.00 0.09 0.00 39 1015.3
20260503174543 56 98 7.0 14.0 0.00 0.09 0.00 40 1015.4
20260503174024 56 71 5.0 14.0 0.00 0.09 0.00 39 1015.4
20260503173526 56 88 4.0 20.0 0.00 0.09 0.00 38 1015.2
20260503173101 56 100 4.0 20.0 0.00 0.09 0.00 40 1015.3
20260503172525 56 86 8.0 20.0 0.00 0.09 0.00 38 1015.4
20260503172026 55 95 5.0 12.0 0.00 0.09 0.00 40 1015.2
20260503171542 55 86 5.0 13.0 0.00 0.09 0.00 41 1015.4
20260503171024 55 92 5.0 13.0 0.00 0.09 0.00 40 1015.4
20260503170525 55 107 5.0 13.0 0.00 0.09 0.00 40 1015.4
20260503150526 53 310 1.0 14.0 0.00 0.09 0.00 43 1015.6
20260503131029 50 38 2.0 9.0 0.00 0.09 0.00 48 1015.6
20260503130527 50 65 3.0 9.0 0.00 0.09 0.00 50 1015.5
20260503110527 50 0 2.0 5.0 0.00 0.09 0.00 57 1016.0